• In Kazakhstan
  • List of Countries
  • For 7 days
  • Water Temperature
  • Weather Map
  • News
  • Weather Widgets
  • user-avatar
    Login

    Hourly Weather Mérida

    Today, 5 April, Sunday

    Time Temperature Precipitation Wind Pressure Humidity
    00:00 +18°C° 0.6 mm 1 mps 592 mmHg 91%
    01:00 +18°C° 0.6 mm 1 mps 592 mmHg 90%
    02:00 +16°C° 0.1 mm 1 mps 592 mmHg 89%
    03:00 +16°C° 0.1 mm 2 mps 591 mmHg 89%
    04:00 +16°C° 0.1 mm 2 mps 591 mmHg 88%
    05:00 +16°C° 0 mm 2 mps 592 mmHg 88%
    06:00 +17°C° 0 mm 2 mps 593 mmHg 87%
    07:00 +18°C° 0 mm 2 mps 593 mmHg 86%
    08:00 +19°C° 0.1 mm 2 mps 594 mmHg 82%
    09:00 +20°C° 0.1 mm 2 mps 595 mmHg 79%
    10:00 +21°C° 0.1 mm 2 mps 596 mmHg 75%
    11:00 +23°C° 0.7 mm 2 mps 595 mmHg 75%
    12:00 +23°C° 0.7 mm 2 mps 594 mmHg 76%
    13:00 +23°C° 0.7 mm 2 mps 594 mmHg 76%
    14:00 +23°C° 1 mm 2 mps 593 mmHg 79%
    15:00 +22°C° 1 mm 1 mps 593 mmHg 82%
    16:00 +22°C° 1 mm 1 mps 592 mmHg 85%
    17:00 +21°C° 0.7 mm 1 mps 592 mmHg 87%
    18:00 +20°C° 0.7 mm 1 mps 592 mmHg 90%
    19:00 +19°C° 0.7 mm 1 mps 592 mmHg 93%
    20:00 +19°C° 0.2 mm 1 mps 592 mmHg 91%
    21:00 +18°C° 0.2 mm 1 mps 593 mmHg 90%
    22:00 +17°C° 0.2 mm 2 mps 593 mmHg 88%
    23:00 +17°C° 0.1 mm 2 mps 593 mmHg 87%

    Tomorrow, 6 April, Monday

    Time Temperature Precipitation Wind Pressure Humidity
    00:00 +17°C° 0.1 mm 2 mps 592 mmHg 86%
    01:00 +16°C° 0.1 mm 2 mps 592 mmHg 86%
    02:00 +16°C° 0 mm 2 mps 592 mmHg 86%
    03:00 +16°C° 0 mm 2 mps 592 mmHg 87%
    04:00 +16°C° 0 mm 2 mps 592 mmHg 88%
    05:00 +17°C° 0 mm 2 mps 593 mmHg 86%
    06:00 +17°C° 0 mm 2 mps 593 mmHg 84%
    07:00 +18°C° 0 mm 2 mps 594 mmHg 82%
    08:00 +20°C° 0 mm 2 mps 595 mmHg 76%
    09:00 +21°C° 0 mm 2 mps 596 mmHg 71%
    10:00 +24°C° 0 mm 2 mps 597 mmHg 66%
    11:00 +24°C° 0.4 mm 2 mps 596 mmHg 67%
    12:00 +24°C° 0.4 mm 2 mps 596 mmHg 68%
    13:00 +24°C° 0.4 mm 2 mps 595 mmHg 70%
    14:00 +23°C° 0.6 mm 2 mps 594 mmHg 74%
    15:00 +23°C° 0.6 mm 1 mps 593 mmHg 79%
    16:00 +22°C° 0.6 mm 1 mps 593 mmHg 84%
    17:00 +21°C° 0.5 mm 1 mps 593 mmHg 87%
    18:00 +20°C° 0.5 mm 1 mps 593 mmHg 89%
    19:00 +19°C° 0.5 mm 1 mps 593 mmHg 92%
    20:00 +19°C° 0.2 mm 1 mps 593 mmHg 90%
    21:00 +18°C° 0.2 mm 1 mps 593 mmHg 89%
    22:00 +18°C° 0.2 mm 1 mps 594 mmHg 87%
    23:00 +18°C° 0 mm 1 mps 593 mmHg 85%

    Day after tomorrow, 7 April, Tuesday

    Time Temperature Precipitation Wind Pressure Humidity
    00:00 +16°C° 0 mm 1 mps 593 mmHg 83%
    01:00 +16°C° 0 mm 1 mps 592 mmHg 82%
    02:00 +16°C° 0 mm 1 mps 592 mmHg 83%
    03:00 +16°C° 0 mm 1 mps 592 mmHg 85%
    04:00 +16°C° 0 mm 2 mps 592 mmHg 86%
    05:00 +17°C° 0 mm 2 mps 593 mmHg 85%
    06:00 +17°C° 0 mm 2 mps 593 mmHg 83%
    07:00 +18°C° 0 mm 2 mps 594 mmHg 82%
    08:00 +19°C° 0 mm 2 mps 595 mmHg 76%
    09:00 +21°C° 0 mm 2 mps 596 mmHg 70%
    10:00 +24°C° 0 mm 2 mps 597 mmHg 65%
    11:00 +24°C° 0.3 mm 2 mps 596 mmHg 66%
    12:00 +24°C° 0.3 mm 2 mps 596 mmHg 66%
    13:00 +24°C° 0.3 mm 2 mps 595 mmHg 67%
    14:00 +23°C° 0.6 mm 2 mps 594 mmHg 72%
    15:00 +22°C° 0.6 mm 1 mps 594 mmHg 77%
    16:00 +22°C° 0.6 mm 1 mps 593 mmHg 81%
    17:00 +21°C° 0.2 mm 1 mps 592 mmHg 85%
    18:00 +18°C° 0.2 mm 0 mps 592 mmHg 88%
    19:00 +17°C° 0.2 mm 0 mps 592 mmHg 92%
    20:00 +18°C° 0 mm 1 mps 593 mmHg 89%
    21:00 +18°C° 0 mm 1 mps 593 mmHg 87%
    22:00 +18°C° 0 mm 1 mps 593 mmHg 84%
    23:00 +16°C° 0 mm 1 mps 593 mmHg 83%

    8 April, Wednesday

    Time Temperature Precipitation Wind Pressure Humidity
    00:00 +16°C° 0 mm 1 mps 592 mmHg 81%
    01:00 +15°C° 0 mm 1 mps 592 mmHg 80%
    02:00 +15°C° 0 mm 1 mps 591 mmHg 78%
    03:00 +15°C° 0 mm 1 mps 591 mmHg 76%
    04:00 +15°C° 0 mm 1 mps 591 mmHg 74%
    05:00 +16°C° 0 mm 1 mps 592 mmHg 73%
    06:00 +18°C° 0 mm 1 mps 593 mmHg 72%
    07:00 +19°C° 0 mm 1 mps 594 mmHg 70%
    08:00 +19°C° 0 mm 2 mps 595 mmHg 66%
    09:00 +21°C° 0 mm 2 mps 596 mmHg 62%
    10:00 +24°C° 0 mm 2 mps 597 mmHg 58%
    11:00 +24°C° 0.2 mm 2 mps 596 mmHg 62%
    12:00 +24°C° 0.2 mm 2 mps 595 mmHg 66%
    13:00 +24°C° 0.2 mm 2 mps 594 mmHg 70%
    14:00 +23°C° 0.6 mm 2 mps 594 mmHg 74%
    15:00 +23°C° 0.6 mm 1 mps 593 mmHg 78%
    16:00 +22°C° 0.6 mm 1 mps 592 mmHg 81%
    17:00 +21°C° 0.7 mm 1 mps 592 mmHg 85%
    18:00 +20°C° 0.7 mm 1 mps 592 mmHg 89%
    19:00 +19°C° 0.7 mm 1 mps 592 mmHg 92%
    20:00 +18°C° 0.2 mm 1 mps 592 mmHg 91%
    21:00 +18°C° 0.2 mm 1 mps 592 mmHg 89%
    22:00 +16°C° 0.2 mm 1 mps 592 mmHg 88%
    23:00 +16°C° 0 mm 2 mps 592 mmHg 86%

    9 April, Thursday

    Time Temperature Precipitation Wind Pressure Humidity
    00:00 +15°C° 0 mm 2 mps 592 mmHg 84%
    01:00 +15°C° 0 mm 2 mps 591 mmHg 82%
    02:00 +15°C° 0 mm 2 mps 591 mmHg 81%
    03:00 +15°C° 0 mm 2 mps 591 mmHg 81%
    04:00 +14°C° 0 mm 2 mps 591 mmHg 80%
    05:00 +15°C° 0 mm 2 mps 591 mmHg 78%
    06:00 +16°C° 0 mm 2 mps 592 mmHg 76%
    07:00 +17°C° 0 mm 2 mps 593 mmHg 74%
    08:00 +19°C° 0 mm 2 mps 594 mmHg 70%
    09:00 +20°C° 0 mm 2 mps 595 mmHg 66%
    10:00 +23°C° 0 mm 2 mps 596 mmHg 62%
    11:00 +23°C° 0.3 mm 2 mps 595 mmHg 66%
    12:00 +23°C° 0.3 mm 2 mps 595 mmHg 69%
    13:00 +23°C° 0.3 mm 2 mps 594 mmHg 73%
    14:00 +23°C° 0.6 mm 2 mps 593 mmHg 75%
    15:00 +22°C° 0.6 mm 1 mps 593 mmHg 77%
    16:00 +22°C° 0.6 mm 1 mps 592 mmHg 80%
    17:00 +21°C° 0.5 mm 1 mps 592 mmHg 84%
    18:00 +20°C° 0.5 mm 1 mps 592 mmHg 87%
    19:00 +18°C° 0.5 mm 1 mps 592 mmHg 91%
    20:00 +18°C° 0.2 mm 1 mps 592 mmHg 89%
    21:00 +16°C° 0.2 mm 1 mps 592 mmHg 87%
    22:00 +16°C° 0.2 mm 1 mps 592 mmHg 85%
    23:00 +15°C° 0 mm 1 mps 592 mmHg 80%

    10 April, Friday

    Time Temperature Precipitation Wind Pressure Humidity
    00:00 +15°C° 0 mm 2 mps 591 mmHg 75%
    01:00 +14°C° 0 mm 2 mps 591 mmHg 69%
    02:00 +14°C° 0 mm 2 mps 591 mmHg 68%
    03:00 +14°C° 0 mm 2 mps 591 mmHg 67%
    04:00 +13°C° 0 mm 2 mps 590 mmHg 66%
    05:00 +14°C° 0 mm 2 mps 591 mmHg 64%
    06:00 +16°C° 0 mm 2 mps 592 mmHg 61%
    07:00 +17°C° 0 mm 2 mps 593 mmHg 59%
    08:00 +19°C° 0 mm 2 mps 594 mmHg 56%
    09:00 +20°C° 0 mm 2 mps 595 mmHg 52%
    10:00 +23°C° 0 mm 2 mps 596 mmHg 49%
    11:00 +23°C° 0.1 mm 2 mps 596 mmHg 54%
    12:00 +24°C° 0.1 mm 2 mps 595 mmHg 58%
    13:00 +24°C° 0.1 mm 2 mps 595 mmHg 63%
    14:00 +23°C° 0.6 mm 2 mps 594 mmHg 69%
    15:00 +22°C° 0.6 mm 1 mps 593 mmHg 76%
    16:00 +21°C° 0.6 mm 1 mps 592 mmHg 82%
    17:00 +20°C° 0.5 mm 1 mps 592 mmHg 86%
    18:00 +19°C° 0.5 mm 1 mps 592 mmHg 89%
    19:00 +18°C° 0.5 mm 1 mps 592 mmHg 93%
    20:00 +18°C° 0.2 mm 1 mps 593 mmHg 93%
    21:00 +18°C° 0.2 mm 1 mps 593 mmHg 92%
    22:00 +18°C° 0.2 mm 1 mps 593 mmHg 92%
    23:00 +16°C° 0 mm 1 mps 593 mmHg 91%
    Show more